{"data":{"norad_id":58196,"intl_designator":"2023-167X","name":"STARLINK-30798","alt_names":[],"object_type":"PAYLOAD","status":"ACTIVE","operator":null,"country":"US","launch_date":"2023-10-30","launch_site_code":"AFETR","launch_vehicle":null,"mission":null,"orbit_class":"UNKNOWN","rcs_meters":null,"size_class":null,"mass_kg":null,"dimensions":null,"purposes":["comms"],"wikipedia_slug":null,"has_3d_model":false,"image_url":null,"decayed_at":null,"tle_current":{"epoch":"2026-05-25T03:08:42.785664Z","epoch_age_seconds":70608,"freshness":"FRESH","line1":"1 58196U 23167X   26145.13105076 -.00001807  00000+0 -56145-4 0  9991","line2":"2 58196  43.0032  71.8822 0001744 271.1636  88.9016 15.27586588142670","mean_motion":15.27586588,"eccentricity":0.0001744,"inclination_deg":43.0032,"raan_deg":71.8822,"arg_perigee_deg":271.1636,"mean_anomaly_deg":88.9016,"bstar":-5.6145e-5,"rev_number":14267,"period_min":94.266342170844,"perigee_km":481.83278185373,"apogee_km":484.22595668333,"semimajor_km":6861.1663692685,"source":"CELESTRAK","updated_at":"2026-05-25T13:38:18.573419Z"}}}